CES909 ZWWW-ZSPD

Flight info

Callsign CES909
Flight time 4h 18m
Altitude 35100
Route WUR W190 ADPET W188 DAKPA W189 AKLAS W192 ESDEX W191 DNC W565 BIGUX W214 HO DCT EPDOR DCT ATGEN W283 SUDGO W4 UPSIK W282 NUGSA DCT ML W118 REVKU DCT FYG B208 HFE R343 EKIMU
Aircraft A346/H-SDE2E3FGHIJ3J4J5M1RWXY/LB1D1

Departure

Time 2026-05-06 14:03
Airport Ürümqi Tianshan International Airport (ZWWW)

Arrival

Time 2026-05-06 18:21
Airport Shanghai Pudong International Airport (ZSPD)
Time Latitude Longitude Altitude Speed Heading
2026-05-06 13:38 43.91385 87.46921 2144 ft 0 kts 75°
2026-05-06 13:52 43.91382 87.46909 2116 ft 4 kts 76°
2026-05-06 13:52 43.91378 87.46887 2116 ft 3 kts 47°
2026-05-06 13:52 43.91364 87.46867 2120 ft 4 kts 46°
2026-05-06 13:52 43.91345 87.46839 2142 ft 4 kts 46°
2026-05-06 13:53 43.91326 87.46814 2142 ft 4 kts 38°
2026-05-06 13:53 43.91317 87.46805 2142 ft 0 kts 34°
2026-05-06 13:58 43.91324 87.46809 2143 ft 2 kts 15°
2026-05-06 13:58 43.91350 87.46810 2144 ft 6 kts 357°
2026-05-06 13:58 43.91399 87.46795 2144 ft 12 kts 342°
2026-05-06 13:58 43.91495 87.46755 2144 ft 15 kts 344°
2026-05-06 13:59 43.91566 87.46660 2144 ft 15 kts 288°
2026-05-06 13:59 43.91603 87.46524 2143 ft 15 kts 309°
2026-05-06 13:59 43.91693 87.46466 2144 ft 16 kts 341°
2026-05-06 13:59 43.91804 87.46413 2144 ft 18 kts 329°
2026-05-06 14:00 43.91822 87.46255 2144 ft 19 kts 252°
2026-05-06 14:00 43.91782 87.46070 2144 ft 21 kts 253°
2026-05-06 14:00 43.91740 87.45871 2144 ft 22 kts 253°
2026-05-06 14:00 43.91695 87.45659 2144 ft 23 kts 253°
2026-05-06 14:01 43.91649 87.45437 2144 ft 24 kts 254°
2026-05-06 14:01 43.91640 87.45256 2144 ft 17 kts 307°
2026-05-06 14:01 43.91757 87.45190 2144 ft 19 kts 344°
2026-05-06 14:01 43.91891 87.45144 2145 ft 19 kts 356°
2026-05-06 14:02 43.91965 87.45265 2144 ft 13 kts 72°
2026-05-06 14:02 43.91975 87.45308 2143 ft 20 kts 72°
2026-05-06 14:02 43.92092 87.45863 2146 ft 100 kts 73°
2026-05-06 14:02 43.92361 87.47123 2142 ft 170 kts 72°
2026-05-06 14:03 43.92774 87.48870 2501 ft 202 kts 72°
2026-05-06 14:03 43.93176 87.50748 3462 ft 202 kts 73°
2026-05-06 14:03 43.93683 87.52546 4493 ft 200 kts 52°
2026-05-06 14:03 43.94743 87.53702 5266 ft 195 kts 21°
2026-05-06 14:04 43.96093 87.53989 5833 ft 203 kts 356°
2026-05-06 14:04 43.97578 87.53824 6132 ft 227 kts
2026-05-06 14:04 43.99258 87.54222 6136 ft 262 kts 13°
2026-05-06 14:04 44.01071 87.54871 6122 ft 273 kts 15°
2026-05-06 14:05 44.02912 87.55592 6170 ft 279 kts 16°
2026-05-06 14:05 44.04815 87.56372 6788 ft 284 kts 16°
2026-05-06 14:05 44.06692 87.57156 7775 ft 280 kts 16°
2026-05-06 14:05 44.08436 87.57888 8609 ft 281 kts 16°
2026-05-06 14:06 44.10321 87.58681 9423 ft 285 kts 15°
2026-05-06 14:06 44.12189 87.59468 10214 ft 288 kts 15°
2026-05-06 14:06 44.14132 87.60285 10831 ft 298 kts 15°
2026-05-06 14:06 44.16175 87.61143 11249 ft 316 kts 15°
2026-05-06 14:07 44.18288 87.62033 11618 ft 333 kts 15°
2026-05-06 14:07 44.20580 87.63001 11976 ft 351 kts 15°
2026-05-06 14:07 44.22980 87.64018 12329 ft 369 kts 15°
2026-05-06 14:07 44.25454 87.65066 12737 ft 383 kts 15°
2026-05-06 14:08 44.28042 87.66166 13491 ft 388 kts 15°
2026-05-06 14:08 44.30628 87.67297 14275 ft 392 kts 18°
2026-05-06 14:08 44.33121 87.68873 14996 ft 396 kts 27°
2026-05-06 14:08 44.35423 87.71000 15739 ft 400 kts 37°
2026-05-06 14:09 44.37497 87.73499 16445 ft 404 kts 40°
2026-05-06 14:09 44.39577 87.76163 17156 ft 408 kts 41°
2026-05-06 14:09 44.41675 87.78870 17879 ft 411 kts 41°
2026-05-06 14:09 44.43781 87.81579 18579 ft 413 kts 41°
2026-05-06 14:10 44.45911 87.84307 19207 ft 417 kts 41°
2026-05-06 14:10 44.48063 87.87057 19628 ft 419 kts 41°
2026-05-06 14:10 44.50223 87.89814 19798 ft 420 kts 41°
2026-05-06 14:10 44.52397 87.92589 19973 ft 427 kts 41°
2026-05-06 14:11 44.54553 87.95481 20609 ft 429 kts 47°
2026-05-06 14:11 44.56136 87.98985 21277 ft 433 kts 65°
2026-05-06 14:11 44.56922 88.02971 21859 ft 439 kts 81°
2026-05-06 14:11 44.56873 88.07154 22423 ft 445 kts 95°
2026-05-06 14:12 44.56460 88.11382 23026 ft 449 kts 97°
2026-05-06 14:12 44.56166 88.14198 23365 ft 452 kts 97°
2026-05-06 14:12 44.55586 88.19960 24002 ft 456 kts 96°
2026-05-06 14:12 44.55171 88.24403 24485 ft 459 kts 95°
2026-05-06 14:13 44.54919 88.27215 24790 ft 461 kts 95°
2026-05-06 14:13 44.54385 88.33216 25444 ft 464 kts 95°
2026-05-06 14:13 44.54121 88.36181 25754 ft 466 kts 95°
2026-05-06 14:13 44.53713 88.40713 26221 ft 469 kts 95°
2026-05-06 14:14 44.53298 88.45273 26681 ft 472 kts 95°
2026-05-06 14:14 44.52882 88.49835 27143 ft 475 kts 95°
2026-05-06 14:14 44.52470 88.54435 27599 ft 477 kts 95°
2026-05-06 14:14 44.52065 88.59071 28150 ft 477 kts 95°
2026-05-06 14:15 44.51661 88.63701 28857 ft 474 kts 95°
2026-05-06 14:15 44.51261 88.68259 29470 ft 472 kts 95°
2026-05-06 14:15 44.50858 88.72828 29798 ft 473 kts 95°
2026-05-06 14:15 44.50458 88.77335 30310 ft 472 kts 95°
2026-05-06 14:16 44.50048 88.81912 30932 ft 469 kts 95°
2026-05-06 14:16 44.49641 88.86431 31542 ft 466 kts 95°
2026-05-06 14:16 44.49241 88.90866 32066 ft 465 kts 95°
2026-05-06 14:16 44.48831 88.95370 32569 ft 464 kts 95°
2026-05-06 14:17 44.48416 88.99916 33085 ft 463 kts 95°
2026-05-06 14:17 44.48005 89.04390 33583 ft 462 kts 95°
2026-05-06 14:17 44.47599 89.08794 34030 ft 462 kts 95°
2026-05-06 14:17 44.47179 89.13298 34361 ft 464 kts 95°
2026-05-06 14:18 44.46757 89.17793 34648 ft 466 kts 95°
2026-05-06 14:18 44.46329 89.22315 34944 ft 468 kts 96°
2026-05-06 14:18 44.45898 89.26849 35182 ft 471 kts 96°
2026-05-06 14:18 44.45463 89.31390 35188 ft 472 kts 96°
2026-05-06 14:19 44.44595 89.40383 35207 ft 472 kts 96°
2026-05-06 14:19 44.43706 89.49514 35190 ft 472 kts 96°
2026-05-06 14:20 44.42812 89.58617 35192 ft 472 kts 96°
2026-05-06 14:20 44.41810 89.67727 35198 ft 473 kts 99°
2026-05-06 14:21 44.40192 89.76671 35187 ft 475 kts 105°
2026-05-06 14:21 44.38278 89.85497 35187 ft 475 kts 105°
2026-05-06 14:22 44.36349 89.94331 35194 ft 474 kts 105°
2026-05-06 14:22 44.34435 90.03092 35196 ft 474 kts 105°
2026-05-06 14:23 44.32485 90.11987 35194 ft 474 kts 105°
2026-05-06 14:23 44.30549 90.20788 35196 ft 474 kts 105°
2026-05-06 14:24 44.28600 90.29610 35209 ft 474 kts 105°
2026-05-06 14:24 44.26641 90.38443 35217 ft 474 kts 105°
2026-05-06 14:25 44.24700 90.47154 35210 ft 474 kts 105°
2026-05-06 14:25 44.22763 90.55815 35210 ft 474 kts 105°
2026-05-06 14:26 44.20802 90.64548 35223 ft 473 kts 105°
2026-05-06 14:26 44.18825 90.73314 35221 ft 473 kts 106°
2026-05-06 14:27 44.16837 90.82091 35228 ft 473 kts 106°
2026-05-06 14:27 44.14852 90.90820 35227 ft 473 kts 106°
2026-05-06 14:28 44.12865 90.99514 35238 ft 473 kts 106°
2026-05-06 14:28 44.10911 91.08048 35240 ft 473 kts 106°
2026-05-06 14:29 44.08911 91.16756 35247 ft 473 kts 106°
2026-05-06 14:29 44.06914 91.25401 35247 ft 472 kts 106°
2026-05-06 14:30 44.04040 91.33619 35250 ft 477 kts 125°
2026-05-06 14:30 43.99308 91.40052 35256 ft 479 kts 144°
2026-05-06 14:31 43.96408 91.42342 35260 ft 481 kts 155°
2026-05-06 14:31 43.93242 91.43923 35258 ft 482 kts 165°
2026-05-06 14:31 43.86615 91.45358 35268 ft 482 kts 173°
2026-05-06 14:32 43.79967 91.46476 35266 ft 482 kts 172°
2026-05-06 14:32 43.73351 91.47641 35262 ft 481 kts 172°
2026-05-06 14:33 43.66711 91.48842 35262 ft 481 kts 172°
2026-05-06 14:33 43.60066 91.50047 35257 ft 481 kts 172°
2026-05-06 14:34 43.53448 91.51245 35251 ft 481 kts 172°
2026-05-06 14:34 43.46803 91.52445 35237 ft 481 kts 172°
2026-05-06 14:35 43.40150 91.53648 35221 ft 481 kts 172°
2026-05-06 14:35 43.33502 91.54857 35201 ft 482 kts 172°
2026-05-06 14:36 43.26892 91.56054 35197 ft 481 kts 172°
2026-05-06 14:36 43.20315 91.57241 35185 ft 481 kts 172°
2026-05-06 14:37 43.13817 91.58409 35175 ft 482 kts 172°
2026-05-06 14:37 43.07129 91.59610 35175 ft 482 kts 172°
2026-05-06 14:38 43.00489 91.60800 35160 ft 482 kts 171°
2026-05-06 14:38 42.93846 91.61984 35159 ft 483 kts 171°
2026-05-06 14:39 42.87229 91.63171 35157 ft 483 kts 171°
2026-05-06 14:39 42.80593 91.64356 35147 ft 481 kts 172°
2026-05-06 14:40 42.74028 91.65524 35154 ft 479 kts 172°
2026-05-06 14:40 42.67416 91.66691 35157 ft 479 kts 172°
2026-05-06 14:41 42.60820 91.67853 35159 ft 479 kts 172°
2026-05-06 14:41 42.54265 91.69011 35163 ft 479 kts 172°
2026-05-06 14:42 42.47666 91.70183 35176 ft 478 kts 172°
2026-05-06 14:42 42.41122 91.71365 35187 ft 478 kts 172°
2026-05-06 14:43 42.34498 91.72559 35195 ft 480 kts 173°
2026-05-06 14:43 42.27885 91.73736 35195 ft 480 kts 173°
2026-05-06 14:44 42.21288 91.74913 35208 ft 480 kts 172°
2026-05-06 14:45 42.11341 91.76703 35217 ft 481 kts 173°
2026-05-06 14:45 42.04739 91.77880 35221 ft 481 kts 173°
2026-05-06 14:46 41.98091 91.79059 35227 ft 481 kts 173°
2026-05-06 14:46 41.91466 91.80240 35229 ft 479 kts 174°
2026-05-06 14:47 41.84865 91.81394 35227 ft 479 kts 174°
2026-05-06 14:47 41.78268 91.82548 35230 ft 479 kts 174°
2026-05-06 14:48 41.71679 91.83857 35218 ft 479 kts 169°
2026-05-06 14:48 41.65446 91.87031 35223 ft 483 kts 153°
2026-05-06 14:49 41.60062 91.92423 35229 ft 488 kts 136°
2026-05-06 14:49 41.55887 91.99650 35229 ft 492 kts 124°
2026-05-06 14:50 41.52221 92.07394 35220 ft 496 kts 124°
2026-05-06 14:50 41.48510 92.15177 35228 ft 497 kts 125°
2026-05-06 14:51 41.44764 92.22942 35226 ft 497 kts 125°
2026-05-06 14:51 41.41011 92.30681 35234 ft 497 kts 126°
2026-05-06 14:52 41.37235 92.38446 35232 ft 499 kts 126°
2026-05-06 14:52 41.33447 92.46206 35235 ft 499 kts 126°
2026-05-06 14:53 41.29655 92.53978 35228 ft 502 kts 127°
2026-05-06 14:53 41.25846 92.61740 35234 ft 503 kts 127°
2026-05-06 14:54 41.21985 92.69589 35229 ft 504 kts 127°
2026-05-06 14:54 41.18162 92.77344 35227 ft 505 kts 127°
2026-05-06 14:55 41.14311 92.85137 35229 ft 505 kts 127°
2026-05-06 14:55 41.10454 92.92924 35217 ft 504 kts 127°
2026-05-06 14:56 41.06594 93.00696 35219 ft 504 kts 127°
2026-05-06 14:56 41.02726 93.08472 35205 ft 505 kts 127°
2026-05-06 14:57 40.98903 93.16132 35207 ft 507 kts 127°
2026-05-06 14:57 40.94991 93.23946 35204 ft 507 kts 128°
2026-05-06 14:58 40.91091 93.31720 35206 ft 507 kts 128°
2026-05-06 14:58 40.87188 93.39479 35208 ft 506 kts 128°
2026-05-06 14:59 40.83910 93.45990 35208 ft 508 kts 128°
2026-05-06 14:59 40.80000 93.53715 35204 ft 509 kts 128°
2026-05-06 15:00 40.76040 93.61462 35192 ft 507 kts 130°
2026-05-06 15:00 40.71775 93.68767 35204 ft 506 kts 133°
2026-05-06 15:01 40.67389 93.76023 35194 ft 505 kts 134°
2026-05-06 15:01 40.63004 93.83269 35161 ft 507 kts 134°
2026-05-06 15:02 40.58594 93.90552 35181 ft 509 kts 134°
2026-05-06 15:02 40.54164 93.97845 35172 ft 509 kts 134°
2026-05-06 15:03 40.49758 94.05085 35176 ft 509 kts 134°
2026-05-06 15:03 40.45328 94.12352 35162 ft 509 kts 134°
2026-05-06 15:04 40.40895 94.19603 35150 ft 509 kts 134°
2026-05-06 15:04 40.36494 94.26788 35148 ft 511 kts 134°
2026-05-06 15:05 40.32033 94.34050 35157 ft 511 kts 134°
2026-05-06 15:05 40.27583 94.41278 35162 ft 511 kts 134°
2026-05-06 15:06 40.23115 94.48518 35160 ft 511 kts 134°
2026-05-06 15:06 40.18659 94.55719 35164 ft 511 kts 135°
2026-05-06 15:07 40.14190 94.62935 35143 ft 509 kts 134°
2026-05-06 15:07 40.10078 94.70525 35175 ft 513 kts 127°
2026-05-06 15:08 40.06645 94.78716 35178 ft 518 kts 121°
2026-05-06 15:08 40.03525 94.87127 35177 ft 517 kts 120°
2026-05-06 15:09 40.00385 94.95540 35197 ft 517 kts 121°
2026-05-06 15:09 39.97229 95.03895 35207 ft 517 kts 121°
2026-05-06 15:10 39.94047 95.12312 35211 ft 518 kts 121°
2026-05-06 15:10 39.90863 95.20744 35233 ft 517 kts 121°
2026-05-06 15:11 39.87672 95.29159 35247 ft 516 kts 121°
2026-05-06 15:11 39.84587 95.37264 35260 ft 516 kts 121°
2026-05-06 15:12 39.81426 95.45543 35263 ft 516 kts 121°
2026-05-06 15:12 39.78217 95.53928 35295 ft 516 kts 121°
2026-05-06 15:13 39.75008 95.62289 35294 ft 516 kts 121°
2026-05-06 15:13 39.71798 95.70627 35297 ft 516 kts 121°
2026-05-06 15:14 39.68568 95.78986 35329 ft 518 kts 121°
2026-05-06 15:14 39.65330 95.87352 35303 ft 518 kts 121°
2026-05-06 15:15 39.62092 95.95697 35320 ft 518 kts 121°
2026-05-06 15:15 39.58856 96.03995 35352 ft 518 kts 121°
2026-05-06 15:16 39.55609 96.12305 35358 ft 518 kts 121°
2026-05-06 15:16 39.52340 96.20625 35359 ft 518 kts 121°
2026-05-06 15:17 39.49058 96.28935 35390 ft 518 kts 122°
2026-05-06 15:17 39.45813 96.37125 35395 ft 518 kts 122°
2026-05-06 15:18 39.42549 96.45343 35404 ft 518 kts 122°
2026-05-06 15:18 39.39284 96.53537 35406 ft 520 kts 122°
2026-05-06 15:19 39.35981 96.61805 35418 ft 521 kts 122°
2026-05-06 15:19 39.32644 96.70133 35413 ft 521 kts 122°
2026-05-06 15:20 39.29307 96.78437 35415 ft 521 kts 122°
2026-05-06 15:20 39.25976 96.86730 35413 ft 523 kts 122°
2026-05-06 15:21 39.22701 96.95030 35419 ft 524 kts 121°
2026-05-06 15:21 39.19399 97.03395 35409 ft 524 kts 122°
2026-05-06 15:22 39.16079 97.11764 35422 ft 524 kts 122°
2026-05-06 15:22 39.12748 97.20123 35397 ft 524 kts 122°
2026-05-06 15:23 39.09412 97.28481 35414 ft 526 kts 122°
2026-05-06 15:23 39.06051 97.36861 35427 ft 526 kts 122°
2026-05-06 15:24 39.02703 97.45194 35434 ft 526 kts 122°
2026-05-06 15:24 38.99343 97.53530 35425 ft 525 kts 122°
2026-05-06 15:25 38.95972 97.61867 35433 ft 526 kts 122°
2026-05-06 15:25 38.92584 97.70232 35435 ft 527 kts 122°
2026-05-06 15:26 38.89188 97.78603 35427 ft 527 kts 123°
2026-05-06 15:26 38.85856 97.86782 35432 ft 527 kts 123°
2026-05-06 15:27 38.82447 97.95123 35421 ft 526 kts 123°
2026-05-06 15:27 38.79024 98.03470 35426 ft 528 kts 123°
2026-05-06 15:28 38.75604 98.11787 35429 ft 528 kts 123°
2026-05-06 15:28 38.72176 98.20105 35430 ft 527 kts 123°
2026-05-06 15:29 38.68755 98.28381 35431 ft 528 kts 123°
2026-05-06 15:29 38.65322 98.36669 35429 ft 528 kts 123°
2026-05-06 15:30 38.61875 98.44967 35427 ft 528 kts 123°
2026-05-06 15:30 38.58426 98.53242 35436 ft 528 kts 123°
2026-05-06 15:31 38.55037 98.61352 35434 ft 528 kts 123°
2026-05-06 15:31 38.51561 98.69651 35434 ft 528 kts 123°
2026-05-06 15:32 38.46344 98.82072 35442 ft 528 kts 124°
2026-05-06 15:32 38.42866 98.90318 35443 ft 529 kts 124°
2026-05-06 15:33 38.39377 98.98573 35445 ft 528 kts 124°
2026-05-06 15:33 38.35923 99.06722 35445 ft 528 kts 124°
2026-05-06 15:34 38.32418 99.14973 35451 ft 530 kts 124°
2026-05-06 15:34 38.28932 99.23150 35432 ft 529 kts 124°
2026-05-06 15:35 38.25414 99.31388 35442 ft 528 kts 124°
2026-05-06 15:35 38.21912 99.39568 35447 ft 528 kts 124°
2026-05-06 15:36 38.18389 99.47775 35442 ft 528 kts 124°
2026-05-06 15:36 38.14865 99.55959 35442 ft 529 kts 124°
2026-05-06 15:37 38.11357 99.64089 35444 ft 530 kts 124°
2026-05-06 15:37 38.07810 99.72287 35438 ft 529 kts 124°
2026-05-06 15:38 38.04260 99.80472 35442 ft 529 kts 124°
2026-05-06 15:38 38.00702 99.88652 35395 ft 530 kts 124°
2026-05-06 15:39 37.97147 99.96803 35430 ft 528 kts 124°
2026-05-06 15:39 37.93591 100.04939 35427 ft 528 kts 124°
2026-05-06 15:40 37.90019 100.13091 35422 ft 528 kts 124°
2026-05-06 15:40 37.86444 100.21225 35421 ft 528 kts 124°
2026-05-06 15:41 37.82875 100.29327 35413 ft 528 kts 124°
2026-05-06 15:41 37.79288 100.37449 35415 ft 528 kts 124°
2026-05-06 15:42 37.75720 100.45504 35417 ft 528 kts 124°
2026-05-06 15:42 37.72131 100.53587 35416 ft 528 kts 124°
2026-05-06 15:43 37.68519 100.61699 35411 ft 527 kts 125°
2026-05-06 15:43 37.64933 100.69765 35416 ft 528 kts 124°
2026-05-06 15:44 37.61492 100.77946 35420 ft 528 kts 123°
2026-05-06 15:44 37.58652 100.84761 35415 ft 528 kts 123°
2026-05-06 15:45 37.55195 100.92984 35413 ft 528 kts 123°
2026-05-06 15:45 37.51740 101.01151 35407 ft 528 kts 123°
2026-05-06 15:46 37.48277 101.09310 35423 ft 528 kts 123°
2026-05-06 15:46 37.44808 101.17462 35417 ft 528 kts 123°
2026-05-06 15:47 37.41337 101.25594 35377 ft 527 kts 124°
2026-05-06 15:47 37.37850 101.33742 35423 ft 528 kts 124°
2026-05-06 15:48 37.34375 101.41835 35419 ft 528 kts 124°
2026-05-06 15:48 37.31007 101.50028 35427 ft 531 kts 120°
2026-05-06 15:49 37.28325 101.58705 35429 ft 536 kts 111°
2026-05-06 15:49 37.26253 101.67736 35445 ft 537 kts 109°
2026-05-06 15:50 37.24230 101.76776 35443 ft 538 kts 109°
2026-05-06 15:50 37.22167 101.85800 35442 ft 538 kts 110°
2026-05-06 15:51 37.20081 101.94815 35444 ft 538 kts 110°
2026-05-06 15:51 37.17984 102.03840 35447 ft 538 kts 110°
2026-05-06 15:52 37.15888 102.12862 35460 ft 538 kts 110°
2026-05-06 15:52 37.13806 102.21775 35479 ft 537 kts 110°
2026-05-06 15:53 37.11313 102.30547 35472 ft 532 kts 118°
2026-05-06 15:53 37.08004 102.38761 35477 ft 526 kts 127°
2026-05-06 15:54 37.04138 102.46500 35464 ft 525 kts 128°
2026-05-06 15:54 37.00231 102.54217 35495 ft 525 kts 128°
2026-05-06 15:55 36.96351 102.61940 35495 ft 525 kts 128°
2026-05-06 15:55 36.92467 102.69684 35480 ft 525 kts 128°
2026-05-06 15:56 36.88572 102.77429 35487 ft 526 kts 128°
2026-05-06 15:56 36.84746 102.85016 35474 ft 526 kts 128°
2026-05-06 15:57 36.80983 102.92891 35470 ft 530 kts 123°
2026-05-06 15:57 36.77727 103.01180 35458 ft 532 kts 120°
2026-05-06 15:58 36.74533 103.09521 35442 ft 532 kts 120°
2026-05-06 15:58 36.71337 103.17796 35458 ft 529 kts 121°
2026-05-06 15:59 36.68124 103.26051 35451 ft 528 kts 121°
2026-05-06 15:59 36.64913 103.34271 35454 ft 528 kts 121°
2026-05-06 16:00 36.61685 103.42514 35457 ft 529 kts 121°
2026-05-06 16:00 36.58453 103.50745 35457 ft 529 kts 121°
2026-05-06 16:01 36.55212 103.58978 35437 ft 529 kts 121°
2026-05-06 16:01 36.51725 103.66998 35437 ft 526 kts 126°
2026-05-06 16:02 36.48078 103.74775 35436 ft 526 kts 126°
2026-05-06 16:02 36.44415 103.82556 35430 ft 526 kts 126°
2026-05-06 16:03 36.40838 103.90160 35406 ft 524 kts 126°
2026-05-06 16:03 36.37166 103.97955 35408 ft 520 kts 126°
2026-05-06 16:04 36.33510 104.05699 35409 ft 520 kts 126°
2026-05-06 16:04 36.29855 104.13444 35406 ft 519 kts 126°
2026-05-06 16:05 36.26197 104.21170 35401 ft 519 kts 126°
2026-05-06 16:05 36.22535 104.28875 35399 ft 518 kts 126°
2026-05-06 16:06 36.18871 104.36577 35394 ft 518 kts 126°
2026-05-06 16:06 36.15211 104.44266 35394 ft 518 kts 126°
2026-05-06 16:07 36.11544 104.51941 35381 ft 517 kts 126°
2026-05-06 16:07 36.07874 104.59590 35371 ft 516 kts 126°
2026-05-06 16:08 36.04212 104.67214 35367 ft 515 kts 126°
2026-05-06 16:08 36.00548 104.74829 35368 ft 515 kts 126°
2026-05-06 16:09 35.96877 104.82432 35370 ft 514 kts 126°
2026-05-06 16:09 35.93207 104.90014 35369 ft 514 kts 126°
2026-05-06 16:10 35.89524 104.97608 35357 ft 515 kts 126°
2026-05-06 16:10 35.85878 105.05185 35361 ft 515 kts 126°
2026-05-06 16:11 35.82212 105.12798 35349 ft 515 kts 126°
2026-05-06 16:11 35.78545 105.20385 35350 ft 515 kts 126°
2026-05-06 16:12 35.74896 105.27904 35330 ft 516 kts 126°
2026-05-06 16:12 35.71215 105.35480 35342 ft 516 kts 126°
2026-05-06 16:13 35.67527 105.43052 35335 ft 515 kts 126°
2026-05-06 16:13 35.63837 105.50606 35328 ft 515 kts 126°
2026-05-06 16:14 35.60160 105.58112 35320 ft 515 kts 126°
2026-05-06 16:14 35.56584 105.65744 35314 ft 518 kts 122°
2026-05-06 16:15 35.53687 105.73873 35312 ft 523 kts 114°
2026-05-06 16:15 35.51621 105.82492 35312 ft 528 kts 106°
2026-05-06 16:16 35.50274 105.91247 35308 ft 529 kts 103°
2026-05-06 16:16 35.49016 105.99950 35306 ft 528 kts 103°
2026-05-06 16:17 35.47697 106.08840 35307 ft 529 kts 103°
2026-05-06 16:17 35.46347 106.17753 35308 ft 529 kts 103°
2026-05-06 16:18 35.44991 106.26645 35304 ft 529 kts 104°
2026-05-06 16:18 35.43630 106.35509 35307 ft 529 kts 104°
2026-05-06 16:19 35.42264 106.44368 35305 ft 530 kts 104°
2026-05-06 16:19 35.40889 106.53245 35296 ft 529 kts 104°
2026-05-06 16:20 35.39506 106.62127 35296 ft 529 kts 104°
2026-05-06 16:20 35.38128 106.70926 35273 ft 529 kts 104°
2026-05-06 16:21 35.36730 106.79802 35269 ft 529 kts 104°
2026-05-06 16:21 35.35342 106.88572 35273 ft 528 kts 104°
2026-05-06 16:22 35.33935 106.97411 35273 ft 529 kts 104°
2026-05-06 16:22 35.32539 107.06245 35264 ft 529 kts 103°
2026-05-06 16:23 35.31132 107.15086 35263 ft 529 kts 103°
2026-05-06 16:23 35.29717 107.23926 35260 ft 529 kts 103°
2026-05-06 16:24 35.28294 107.32754 35256 ft 529 kts 104°
2026-05-06 16:24 35.26860 107.41590 35261 ft 528 kts 103°
2026-05-06 16:25 35.25434 107.50324 35259 ft 529 kts 103°
2026-05-06 16:25 35.24003 107.59001 35257 ft 529 kts 104°
2026-05-06 16:26 35.22406 107.67761 35250 ft 526 kts 109°
2026-05-06 16:26 35.19598 107.75962 35246 ft 518 kts 124°
2026-05-06 16:27 35.15445 107.83054 35256 ft 509 kts 138°
2026-05-06 16:27 35.10369 107.88986 35253 ft 505 kts 144°
2026-05-06 16:28 35.05134 107.94711 35249 ft 505 kts 144°
2026-05-06 16:28 35.00807 107.99492 35250 ft 505 kts 144°
2026-05-06 16:29 34.94740 108.06241 35248 ft 505 kts 144°
2026-05-06 16:29 34.90422 108.11050 35252 ft 506 kts 144°
2026-05-06 16:30 34.86105 108.15848 35227 ft 505 kts 143°
2026-05-06 16:30 34.79189 108.23525 35247 ft 505 kts 143°
2026-05-06 16:31 34.74844 108.28340 35227 ft 505 kts 143°
2026-05-06 16:31 34.69611 108.34126 35235 ft 505 kts 144°
2026-05-06 16:32 34.64420 108.39852 35239 ft 505 kts 144°
2026-05-06 16:32 34.59232 108.45564 35225 ft 505 kts 143°
2026-05-06 16:33 34.53833 108.50888 35219 ft 497 kts 152°
2026-05-06 16:34 34.44751 108.56531 35216 ft 482 kts 167°
2026-05-06 16:34 34.38384 108.58667 35212 ft 476 kts 174°
2026-05-06 16:35 34.31905 108.60421 35213 ft 479 kts 174°
2026-05-06 16:35 34.25412 108.62206 35202 ft 479 kts 174°
2026-05-06 16:36 34.18916 108.64019 35216 ft 479 kts 174°
2026-05-06 16:36 34.12434 108.66049 35216 ft 486 kts 168°
2026-05-06 16:37 34.06235 108.69514 35218 ft 498 kts 155°
2026-05-06 16:37 34.00669 108.74567 35206 ft 504 kts 142°
2026-05-06 16:38 33.95960 108.80792 35219 ft 507 kts 135°
2026-05-06 16:38 33.91428 108.87256 35220 ft 505 kts 135°
2026-05-06 16:39 33.86871 108.93688 35230 ft 505 kts 135°
2026-05-06 16:39 33.82285 109.00107 35227 ft 505 kts 136°
2026-05-06 16:40 33.77698 109.06496 35230 ft 505 kts 136°
2026-05-06 16:40 33.73113 109.12872 35221 ft 505 kts 136°
2026-05-06 16:41 33.68528 109.19235 35218 ft 502 kts 136°
2026-05-06 16:41 33.63954 109.25571 35219 ft 502 kts 136°
2026-05-06 16:42 33.59381 109.31894 35218 ft 501 kts 136°
2026-05-06 16:42 33.54813 109.38197 35214 ft 502 kts 136°
2026-05-06 16:43 33.50225 109.44513 35211 ft 502 kts 136°
2026-05-06 16:43 33.46006 109.50958 35206 ft 509 kts 125°
2026-05-06 16:44 33.43231 109.58701 35200 ft 519 kts 107°
2026-05-06 16:44 33.42418 109.67268 35192 ft 520 kts 88°
2026-05-06 16:45 33.43191 109.75880 35198 ft 519 kts 82°
2026-05-06 16:45 33.44129 109.84456 35183 ft 519 kts 82°
2026-05-06 16:46 33.44996 109.93012 35193 ft 518 kts 83°
2026-05-06 16:46 33.45824 110.01592 35183 ft 518 kts 83°
2026-05-06 16:47 33.46632 110.10100 35167 ft 518 kts 83°
2026-05-06 16:47 33.47443 110.18722 35179 ft 515 kts 83°
2026-05-06 16:48 33.48239 110.27241 35172 ft 514 kts 83°
2026-05-06 16:48 33.49027 110.35762 35160 ft 514 kts 83°
2026-05-06 16:49 33.49808 110.44293 35162 ft 514 kts 83°
2026-05-06 16:49 33.50585 110.52800 35165 ft 515 kts 83°
2026-05-06 16:50 33.51364 110.61379 35148 ft 516 kts 83°
2026-05-06 16:50 33.52128 110.69943 35145 ft 516 kts 83°
2026-05-06 16:51 33.52721 110.78509 35133 ft 516 kts 89°
2026-05-06 16:51 33.52218 110.86992 35135 ft 512 kts 101°
2026-05-06 16:52 33.50439 110.95302 35126 ft 509 kts 112°
2026-05-06 16:52 33.47743 111.03051 35122 ft 508 kts 116°
2026-05-06 16:53 33.44861 111.10872 35121 ft 509 kts 116°
2026-05-06 16:53 33.42053 111.18568 35114 ft 507 kts 116°
2026-05-06 16:54 33.39243 111.26310 35116 ft 507 kts 116°
2026-05-06 16:54 33.36436 111.34046 35109 ft 507 kts 116°
2026-05-06 16:55 33.33621 111.41782 35071 ft 506 kts 116°
2026-05-06 16:55 33.30810 111.49493 35088 ft 505 kts 116°
2026-05-06 16:56 33.27995 111.57204 35088 ft 505 kts 116°
2026-05-06 16:56 33.25183 111.64885 35087 ft 505 kts 116°
2026-05-06 16:57 33.22402 111.72461 35087 ft 505 kts 116°
2026-05-06 16:57 33.19607 111.80059 35093 ft 505 kts 116°
2026-05-06 16:58 33.16776 111.87740 35086 ft 504 kts 116°
2026-05-06 16:58 33.13953 111.95378 35074 ft 504 kts 116°
2026-05-06 16:59 33.11112 112.03043 35074 ft 504 kts 116°
2026-05-06 16:59 33.08307 112.10598 35071 ft 504 kts 116°
2026-05-06 17:00 33.05470 112.18227 35070 ft 503 kts 116°
2026-05-06 17:00 33.02626 112.25849 35070 ft 503 kts 116°
2026-05-06 17:01 32.99774 112.33470 35067 ft 503 kts 116°
2026-05-06 17:01 32.96917 112.41085 35067 ft 503 kts 117°
2026-05-06 17:02 32.94059 112.48690 35070 ft 502 kts 117°
2026-05-06 17:02 32.91075 112.56109 35066 ft 500 kts 122°
2026-05-06 17:03 32.87542 112.63213 35062 ft 499 kts 124°
2026-05-06 17:03 32.83914 112.70260 35050 ft 500 kts 124°
2026-05-06 17:04 32.80291 112.77307 35055 ft 500 kts 124°
2026-05-06 17:04 32.76686 112.84322 35056 ft 495 kts 124°
2026-05-06 17:05 32.73091 112.91307 35046 ft 495 kts 124°
2026-05-06 17:05 32.69496 112.98279 35044 ft 495 kts 124°
2026-05-06 17:06 32.65918 113.05205 35053 ft 495 kts 124°
2026-05-06 17:06 32.62319 113.12156 35037 ft 495 kts 124°
2026-05-06 17:07 32.58689 113.19148 35043 ft 499 kts 124°
2026-05-06 17:07 32.55051 113.26156 35040 ft 499 kts 124°
2026-05-06 17:08 32.51409 113.33153 35039 ft 499 kts 124°
2026-05-06 17:08 32.47758 113.40152 35033 ft 499 kts 124°
2026-05-06 17:09 32.44099 113.47143 35021 ft 499 kts 124°
2026-05-06 17:09 32.40454 113.54161 35017 ft 500 kts 121°
2026-05-06 17:10 32.37965 113.61865 35017 ft 505 kts 103°
2026-05-06 17:10 32.37472 113.70146 35015 ft 507 kts 85°
2026-05-06 17:11 32.38957 113.78284 35018 ft 506 kts 72°
2026-05-06 17:11 32.41109 113.86221 35015 ft 506 kts 71°
2026-05-06 17:12 32.43229 113.94109 35001 ft 506 kts 71°
2026-05-06 17:12 32.45304 114.02018 35001 ft 506 kts 72°
2026-05-06 17:13 32.47373 114.09989 34999 ft 507 kts 72°
2026-05-06 17:13 32.49439 114.17987 34982 ft 508 kts 72°
2026-05-06 17:14 32.51506 114.26019 34987 ft 508 kts 72°
2026-05-06 17:14 32.53565 114.34039 34999 ft 508 kts 72°
2026-05-06 17:15 32.55616 114.42054 34986 ft 508 kts 72°
2026-05-06 17:15 32.57662 114.50074 34986 ft 508 kts 72°
2026-05-06 17:16 32.59378 114.56816 34981 ft 508 kts 72°
2026-05-06 17:16 32.61348 114.64581 34975 ft 508 kts 72°
2026-05-06 17:17 32.63384 114.72627 34980 ft 508 kts 72°
2026-05-06 17:17 32.65401 114.80619 34976 ft 508 kts 72°
2026-05-06 17:18 32.67439 114.88724 34981 ft 508 kts 72°
2026-05-06 17:18 32.69445 114.96727 34978 ft 509 kts 72°
2026-05-06 17:19 32.71480 115.04858 34969 ft 508 kts 72°
2026-05-06 17:19 32.73475 115.12864 34975 ft 508 kts 72°
2026-05-06 17:20 32.75476 115.20919 34970 ft 508 kts 72°
2026-05-06 17:20 32.77469 115.28970 34970 ft 508 kts 72°
2026-05-06 17:21 32.79462 115.37037 34971 ft 508 kts 73°
2026-05-06 17:21 32.81444 115.45100 34973 ft 508 kts 73°
2026-05-06 17:22 32.83419 115.53164 34970 ft 509 kts 73°
2026-05-06 17:22 32.85351 115.61258 34962 ft 509 kts 77°
2026-05-06 17:23 32.85828 115.69639 34970 ft 507 kts 97°
2026-05-06 17:23 32.84135 115.77714 34969 ft 502 kts 116°
2026-05-06 17:24 32.80537 115.84712 34970 ft 494 kts 133°
2026-05-06 17:24 32.76077 115.90914 34971 ft 495 kts 135°
2026-05-06 17:25 32.71584 115.97131 34968 ft 495 kts 134°
2026-05-06 17:25 32.67138 116.03379 34972 ft 495 kts 134°
2026-05-06 17:26 32.62698 116.09637 34964 ft 494 kts 134°
2026-05-06 17:26 32.58271 116.15871 34973 ft 494 kts 134°
2026-05-06 17:27 32.53875 116.22148 34974 ft 495 kts 133°
2026-05-06 17:27 32.49543 116.28486 34971 ft 494 kts 133°
2026-05-06 17:28 32.45209 116.34804 34976 ft 494 kts 133°
2026-05-06 17:28 32.40862 116.41113 34976 ft 494 kts 133°
2026-05-06 17:29 32.36544 116.47363 34974 ft 494 kts 133°
2026-05-06 17:29 32.32189 116.53652 34980 ft 494 kts 133°
2026-05-06 17:30 32.27835 116.59932 34962 ft 495 kts 133°
2026-05-06 17:30 32.23462 116.66222 34978 ft 496 kts 133°
2026-05-06 17:31 32.19073 116.72525 34985 ft 496 kts 133°
2026-05-06 17:31 32.14650 116.78742 34992 ft 495 kts 134°
2026-05-06 17:32 32.10184 116.84933 34996 ft 495 kts 134°
2026-05-06 17:32 32.05723 116.91118 34997 ft 494 kts 135°
2026-05-06 17:33 32.01265 116.97286 34999 ft 494 kts 135°
2026-05-06 17:33 31.96810 117.03454 35000 ft 494 kts 134°
2026-05-06 17:34 31.92370 117.09629 34985 ft 494 kts 134°
2026-05-06 17:34 31.87893 117.15835 34993 ft 496 kts 135°
2026-05-06 17:35 31.83444 117.22049 34981 ft 497 kts 132°
2026-05-06 17:35 31.79758 117.28988 34993 ft 505 kts 119°
2026-05-06 17:36 31.77369 117.36780 34998 ft 510 kts 105°
2026-05-06 17:36 31.76715 117.40887 34991 ft 512 kts 99°
2026-05-06 17:36 31.76111 117.49168 34988 ft 510 kts 95°
2026-05-06 17:37 31.75603 117.57485 34993 ft 509 kts 96°
2026-05-06 17:37 31.75049 117.65761 35001 ft 509 kts 96°
2026-05-06 17:38 31.74466 117.74063 35002 ft 509 kts 96°
2026-05-06 17:38 31.73872 117.82369 34927 ft 510 kts 96°
2026-05-06 17:39 31.73574 117.86508 34691 ft 508 kts 96°
2026-05-06 17:39 31.73275 117.90641 34452 ft 505 kts 96°
2026-05-06 17:39 31.72976 117.94742 34221 ft 502 kts 96°
2026-05-06 17:39 31.72680 117.98813 34014 ft 497 kts 97°
2026-05-06 17:40 31.72384 118.02843 33765 ft 492 kts 97°
2026-05-06 17:40 31.72087 118.06844 33502 ft 492 kts 97°
2026-05-06 17:40 31.71790 118.10855 33235 ft 492 kts 97°
2026-05-06 17:40 31.71508 118.14866 32984 ft 492 kts 96°
2026-05-06 17:41 31.71235 118.18882 32731 ft 493 kts 96°
2026-05-06 17:41 31.70961 118.22899 32478 ft 494 kts 96°
2026-05-06 17:41 31.70683 118.26921 32227 ft 494 kts 96°
2026-05-06 17:41 31.70402 118.30956 31978 ft 495 kts 96°
2026-05-06 17:42 31.70119 118.34993 31738 ft 496 kts 96°
2026-05-06 17:42 31.69832 118.39032 31481 ft 496 kts 96°
2026-05-06 17:42 31.69542 118.43081 31245 ft 497 kts 96°
2026-05-06 17:42 31.69251 118.47138 30999 ft 498 kts 96°
2026-05-06 17:43 31.68958 118.51225 30758 ft 498 kts 96°
2026-05-06 17:43 31.68665 118.55284 30523 ft 499 kts 96°
2026-05-06 17:43 31.68374 118.59293 30291 ft 500 kts 96°
2026-05-06 17:43 31.68074 118.63419 30051 ft 501 kts 95°
2026-05-06 17:44 31.67775 118.67496 29794 ft 502 kts 95°
2026-05-06 17:44 31.67474 118.71591 29524 ft 503 kts 95°
2026-05-06 17:44 31.67175 118.75643 29258 ft 504 kts 95°
2026-05-06 17:44 31.66867 118.79807 28984 ft 505 kts 95°
2026-05-06 17:45 31.66565 118.83860 28727 ft 505 kts 96°
2026-05-06 17:45 31.66255 118.87980 28465 ft 506 kts 96°
2026-05-06 17:45 31.65943 118.92106 28207 ft 507 kts 96°
2026-05-06 17:45 31.65630 118.96234 27946 ft 507 kts 96°
2026-05-06 17:46 31.65316 119.00361 27693 ft 508 kts 96°
2026-05-06 17:46 31.65005 119.04505 27444 ft 509 kts 95°
2026-05-06 17:46 31.64759 119.08683 27200 ft 510 kts 94°
2026-05-06 17:46 31.64561 119.12849 26955 ft 511 kts 94°
2026-05-06 17:47 31.64375 119.17022 26708 ft 511 kts 94°
2026-05-06 17:47 31.64200 119.21194 26461 ft 512 kts 94°
2026-05-06 17:47 31.64020 119.25398 26218 ft 512 kts 94°
2026-05-06 17:47 31.63835 119.29575 25986 ft 513 kts 94°
2026-05-06 17:48 31.63645 119.33728 25757 ft 513 kts 94°
2026-05-06 17:48 31.63454 119.37877 25519 ft 511 kts 94°
2026-05-06 17:48 31.63260 119.42060 25276 ft 510 kts 94°
2026-05-06 17:48 31.63067 119.46208 25053 ft 508 kts 94°
2026-05-06 17:49 31.62869 119.50357 24823 ft 507 kts 95°
2026-05-06 17:49 31.62670 119.54497 24584 ft 506 kts 95°
2026-05-06 17:49 31.62469 119.58607 24365 ft 503 kts 95°
2026-05-06 17:49 31.62267 119.62712 24143 ft 502 kts 95°
2026-05-06 17:50 31.62066 119.66799 23924 ft 501 kts 95°
2026-05-06 17:50 31.61875 119.70876 23701 ft 499 kts 95°
2026-05-06 17:50 31.61694 119.74945 23484 ft 498 kts 95°
2026-05-06 17:50 31.61513 119.79004 23212 ft 495 kts 95°
2026-05-06 17:51 31.61332 119.83014 22732 ft 489 kts 95°
2026-05-06 17:51 31.61148 119.86999 22095 ft 487 kts 95°
2026-05-06 17:51 31.60963 119.90959 21539 ft 482 kts 95°
2026-05-06 17:51 31.60778 119.94871 21003 ft 478 kts 95°
2026-05-06 17:52 31.60593 119.98748 20466 ft 473 kts 95°
2026-05-06 17:52 31.60409 120.02590 19939 ft 469 kts 95°
2026-05-06 17:52 31.60224 120.06395 19421 ft 465 kts 95°
2026-05-06 17:52 31.60040 120.10177 18909 ft 461 kts 95°
2026-05-06 17:53 31.59855 120.13917 18394 ft 457 kts 95°
2026-05-06 17:53 31.59669 120.17642 17853 ft 453 kts 95°
2026-05-06 17:53 31.59486 120.21314 17453 ft 448 kts 95°
2026-05-06 17:53 31.59304 120.24978 17203 ft 448 kts 95°
2026-05-06 17:54 31.59059 120.28618 16952 ft 444 kts 98°
2026-05-06 17:54 31.58590 120.32172 16478 ft 438 kts 103°
2026-05-06 17:54 31.57872 120.35633 15882 ft 434 kts 109°
2026-05-06 17:54 31.56939 120.38980 15365 ft 429 kts 111°
2026-05-06 17:55 31.55949 120.42274 14880 ft 425 kts 112°
2026-05-06 17:55 31.54973 120.45487 14389 ft 421 kts 112°
2026-05-06 17:55 31.53996 120.48712 13901 ft 418 kts 112°
2026-05-06 17:55 31.53029 120.51918 13367 ft 414 kts 112°
2026-05-06 17:56 31.52073 120.55091 12829 ft 411 kts 112°
2026-05-06 17:56 31.51126 120.58238 12319 ft 406 kts 111°
2026-05-06 17:56 31.50193 120.61342 11816 ft 402 kts 111°
2026-05-06 17:56 31.49268 120.64422 11310 ft 398 kts 111°
2026-05-06 17:57 31.48353 120.67467 10825 ft 394 kts 111°
2026-05-06 17:57 31.47447 120.70480 10374 ft 389 kts 111°
2026-05-06 17:57 31.46562 120.73424 10191 ft 376 kts 111°
2026-05-06 17:57 31.45707 120.76268 9991 ft 365 kts 111°
2026-05-06 17:58 31.44873 120.79035 9811 ft 354 kts 110°
2026-05-06 17:58 31.44061 120.81728 9607 ft 343 kts 110°
2026-05-06 17:58 31.43278 120.84320 9391 ft 333 kts 111°
2026-05-06 17:58 31.42516 120.86843 9220 ft 323 kts 111°
2026-05-06 17:59 31.41776 120.89286 9039 ft 314 kts 111°
2026-05-06 17:59 31.41059 120.91655 8863 ft 305 kts 111°
2026-05-06 17:59 31.40356 120.93971 8647 ft 298 kts 111°
2026-05-06 17:59 31.39665 120.96245 8321 ft 296 kts 111°
2026-05-06 18:00 31.38975 120.98512 7960 ft 295 kts 111°
2026-05-06 18:00 31.38292 121.00762 7631 ft 293 kts 111°
2026-05-06 18:00 31.37610 121.03006 7317 ft 291 kts 111°
2026-05-06 18:00 31.37163 121.04478 7120 ft 289 kts 111°
2026-05-06 18:01 31.36255 121.07434 6682 ft 287 kts 113°
2026-05-06 18:01 31.35716 121.08843 6483 ft 285 kts 118°
2026-05-06 18:01 31.34715 121.10825 6170 ft 282 kts 126°
2026-05-06 18:01 31.33507 121.12613 5824 ft 279 kts 134°
2026-05-06 18:02 31.32116 121.14195 5482 ft 277 kts 140°
2026-05-06 18:02 31.30666 121.15665 5161 ft 276 kts 141°
2026-05-06 18:02 31.29223 121.17110 4843 ft 275 kts 141°
2026-05-06 18:02 31.27773 121.18567 4512 ft 274 kts 141°
2026-05-06 18:03 31.26335 121.20019 4202 ft 272 kts 141°
2026-05-06 18:03 31.24913 121.21459 3914 ft 270 kts 141°
2026-05-06 18:03 31.23497 121.22892 3619 ft 268 kts 141°
2026-05-06 18:03 31.22091 121.24315 3334 ft 266 kts 141°
2026-05-06 18:04 31.20697 121.25727 3052 ft 263 kts 141°
2026-05-06 18:04 31.19317 121.27122 2951 ft 261 kts 141°
2026-05-06 18:04 31.17943 121.28514 2947 ft 263 kts 141°
2026-05-06 18:04 31.16589 121.29886 2949 ft 263 kts 141°
2026-05-06 18:05 31.15210 121.31281 2945 ft 262 kts 141°
2026-05-06 18:05 31.13904 121.32775 2941 ft 265 kts 130°
2026-05-06 18:05 31.12947 121.34632 2938 ft 267 kts 115°
2026-05-06 18:05 31.12437 121.36728 2942 ft 271 kts 99°
2026-05-06 18:06 31.12363 121.38935 2946 ft 272 kts 90°
2026-05-06 18:06 31.12424 121.41144 2945 ft 272 kts 89°
2026-05-06 18:06 31.12500 121.43357 2945 ft 272 kts 89°
2026-05-06 18:06 31.12567 121.45569 2941 ft 272 kts 90°
2026-05-06 18:07 31.12624 121.47783 2943 ft 273 kts 90°
2026-05-06 18:07 31.12675 121.49994 2939 ft 272 kts 90°
2026-05-06 18:07 31.12721 121.52214 2938 ft 273 kts 90°
2026-05-06 18:07 31.12764 121.54428 2942 ft 272 kts 90°
2026-05-06 18:08 31.12807 121.56641 2943 ft 272 kts 91°
2026-05-06 18:08 31.12850 121.58849 2944 ft 272 kts 90°
2026-05-06 18:08 31.12892 121.61027 2936 ft 262 kts 90°
2026-05-06 18:08 31.12933 121.63098 2931 ft 248 kts 90°
2026-05-06 18:09 31.12957 121.65061 2916 ft 234 kts 97°
2026-05-06 18:09 31.12459 121.66814 2929 ft 228 kts 129°
2026-05-06 18:09 31.11263 121.67962 2942 ft 223 kts 159°
2026-05-06 18:09 31.09803 121.68559 2953 ft 222 kts 164°
2026-05-06 18:10 31.08333 121.69102 2948 ft 221 kts 164°
2026-05-06 18:10 31.06863 121.69647 2947 ft 222 kts 164°
2026-05-06 18:10 31.05393 121.70206 2944 ft 222 kts 163°
2026-05-06 18:10 31.04139 121.70692 2946 ft 222 kts 163°
2026-05-06 18:11 31.02660 121.71270 2949 ft 222 kts 163°
2026-05-06 18:11 31.01205 121.71839 2944 ft 222 kts 163°
2026-05-06 18:11 30.99743 121.72411 2942 ft 222 kts 163°
2026-05-06 18:11 30.98291 121.72986 2939 ft 217 kts 163°
2026-05-06 18:12 30.96886 121.73513 2932 ft 210 kts 165°
2026-05-06 18:12 30.95537 121.73988 2965 ft 194 kts 166°
2026-05-06 18:12 30.94292 121.74420 2938 ft 181 kts 166°
2026-05-06 18:12 30.93081 121.74838 2951 ft 180 kts 165°
2026-05-06 18:13 30.91880 121.75254 2946 ft 180 kts 165°
2026-05-06 18:13 30.90676 121.75678 2947 ft 180 kts 165°
2026-05-06 18:13 30.89474 121.76102 2955 ft 180 kts 166°
2026-05-06 18:13 30.88280 121.76521 2959 ft 179 kts 166°
2026-05-06 18:14 30.87103 121.76985 2944 ft 180 kts 153°
2026-05-06 18:14 30.86188 121.77930 2919 ft 172 kts 128°
2026-05-06 18:14 30.85659 121.79158 2909 ft 172 kts 102°
2026-05-06 18:14 30.85769 121.80561 2956 ft 177 kts 78°
2026-05-06 18:15 30.86173 121.81925 2952 ft 180 kts 72°
2026-05-06 18:15 30.86625 121.83280 2961 ft 180 kts 72°
2026-05-06 18:15 30.87305 121.84506 2944 ft 185 kts 43°
2026-05-06 18:15 30.88392 121.85261 2944 ft 178 kts 23°
2026-05-06 18:16 30.89522 121.85804 2951 ft 174 kts 20°
2026-05-06 18:16 30.90648 121.86322 2962 ft 172 kts 21°
2026-05-06 18:16 30.91750 121.86840 2954 ft 171 kts 16°
2026-05-06 18:16 30.92925 121.87030 2958 ft 172 kts 354°
2026-05-06 18:17 30.94099 121.86847 2958 ft 169 kts 343°
2026-05-06 18:17 30.95230 121.86498 2951 ft 167 kts 340°
2026-05-06 18:17 30.96344 121.86098 2951 ft 167 kts 339°
2026-05-06 18:17 30.97455 121.85681 2941 ft 169 kts 337°
2026-05-06 18:18 30.98581 121.85248 2860 ft 171 kts 338°
2026-05-06 18:18 30.99711 121.84815 2646 ft 172 kts 338°
2026-05-06 18:18 31.00844 121.84384 2424 ft 172 kts 338°
2026-05-06 18:18 31.01976 121.83955 2179 ft 171 kts 339°
2026-05-06 18:19 31.03087 121.83535 1967 ft 170 kts 339°
2026-05-06 18:19 31.04219 121.83107 1745 ft 172 kts 339°
2026-05-06 18:19 31.05371 121.82669 1510 ft 174 kts 339°
2026-05-06 18:19 31.06519 121.82235 1284 ft 172 kts 339°
2026-05-06 18:20 31.07654 121.81810 1061 ft 171 kts 340°
2026-05-06 18:20 31.08788 121.81393 895 ft 170 kts 340°
2026-05-06 18:20 31.09895 121.80959 662 ft 168 kts 341°
2026-05-06 18:20 31.10995 121.80537 431 ft 163 kts 342°
2026-05-06 18:21 31.12060 121.80137 221 ft 160 kts 343°
2026-05-06 18:21 31.13109 121.79741 35 ft 157 kts 341°
2026-05-06 18:21 31.13991 121.79404 29 ft 103 kts 342°
2026-05-06 18:21 31.14480 121.79218 32 ft 48 kts 342°
2026-05-06 18:22 31.14739 121.79195 33 ft 35 kts
2026-05-06 18:22 31.14844 121.79259 32 ft 12 kts 63°
2026-05-06 18:22 31.14880 121.79368 31 ft 16 kts 68°
2026-05-06 18:22 31.14919 121.79500 31 ft 9 kts 71°
2026-05-06 18:23 31.14931 121.79540 31 ft 7 kts 64°
2026-05-06 18:23 31.14966 121.79595 31 ft 10 kts 54°
2026-05-06 18:23 31.14986 121.79640 31 ft 1 kts 69°
2026-05-06 18:23 31.14992 121.79659 31 ft 4 kts 70°
2026-05-06 18:24 31.14996 121.79673 31 ft 2 kts 70°
2026-05-06 18:24 31.15003 121.79697 31 ft 0 kts 71°